• Processing (Info)

  • MPEC 2000-G07 : 2000 FM10

    The following Minor Planet Electronic Circular may be linked-to from your own Web pages, but must not otherwise be redistributed electronically.

    A form allowing access to any MPEC is at the bottom of this page.


    Read MPEC 2000-G06 Read MPEC 2000-G08


    M.P.E.C. 2000-G07                                Issued 2000 Apr. 2, 16:59 UT
    
         The Minor Planet Electronic Circulars contain information on unusual
             minor planets and routine data on comets.  They are published
       on behalf of Commission 20 of the International Astronomical Union by the
              Minor Planet Center, Smithsonian Astrophysical Observatory,
                              Cambridge, MA 02138, U.S.A.
    
                 Prepared using the Tamkin Foundation Computer Network
    
                 BMARSDEN@CFA.HARVARD.EDU or GWILLIAMS@CFA.HARVARD.EDU
              URL http://cfa-www.harvard.edu/iau/mpc.html  ISSN 1523-6714
    
                                       2000 FM10
    
    Observations:
         K00F10M* C2000 03 30.28764 12 57 58.22 -04 33 33.4          21.2 V      691
         K00F10M  C2000 03 30.30839 12 57 56.08 -04 33 22.9          21.2 V      691
         K00F10M  C2000 03 30.32941 12 57 53.91 -04 33 13.1          21.1 V      691
         K00F10M  C2000 03 30.40057 12 57 46.59 -04 32 38.8          20.9 V      691
         K00F10M  C2000 03 30.40482 12 57 46.14 -04 32 36.7          21.1 V      691
         K00F10M  C2000 03 30.40879 12 57 45.76 -04 32 34.7          21.5 V      691
         K00F10M HC2000 04 01.21351 12 54 43.66 -04 17 51.9          21.7 V      691
         K00F10M HC2000 04 01.22432 12 54 42.58 -04 17 46.7          21.3 V      691
         K00F10M HC2000 04 01.23248 12 54 41.58 -04 17 42.3          21.2 V      691
         K00F10M  C2000 04 01.32978 12 54 31.53 -04 16 55.6          21.2 V      691
         K00F10M  C2000 04 01.35054 12 54 29.38 -04 16 45.9                      691
         K00F10M  C2000 04 01.37138 12 54 27.23 -04 16 35.2          21.7 V      691
         K00F10M HC2000 04 02.18857 12 53 04.22 -04 09 52.2          20.5 V      691
         K00F10M HC2000 04 02.19254 12 53 03.76 -04 09 49.3          20.2 V      691
         K00F10M HC2000 04 02.19633 12 53 03.41 -04 09 48.5          20.3 V      691
    
    Observer details:
    691 Steward Observatory, Kitt Peak.  Observers J. L. Montani, A. E. Gleason.
        0.9-m Spacewatch telescope.
    
    Orbital elements:
    2000 FM10
    Epoch 2000 Mar. 17.0 TT = JDT 2451620.5                 Williams
    M 206.34864              (2000.0)            P               Q
    n   0.55604743     Peri.  342.22007     +0.99861878     -0.03279728
    a   1.4646308      Node    19.79571     +0.04893747     +0.86494547
    e   0.5987716      Incl.    6.96149     -0.01912220     +0.50079304
    P   1.77           H   18.5           G   0.15
    From 15 observations 2000 Mar. 30-Apr. 2.  E-assumed.
    
    Ephemeris:
    2000 FM10                a,e,i = 1.46, 0.60, 7                   q = 0.5877
    Date    TT    R. A. (2000) Decl.     Delta      r     Elong.  Phase     V
    2000 03 27    13 03.39   -04 59.6    1.299    2.288   170.0     4.4    21.3
    2000 04 06    12 46.53   -03 38.2    1.269    2.268   175.4     2.0    21.0
    2000 04 16    12 29.65   -02 17.4    1.270    2.244   161.4     8.2    21.3
    2000 04 26    12 14.56   -01 07.8    1.300    2.217   147.7    14.0    21.6
    2000 05 06    12 02.59   -00 16.6    1.354    2.186   134.9    19.1    21.8
    2000 05 16    11 54.43   +00 12.2    1.425    2.152   123.2    23.2    22.0
    
    Gareth V. Williams           (C) Copyright 2000 MPC           M.P.E.C. 2000-G07
    

    Read MPEC 2000-G06 Read MPEC 2000-G08


    MPEC number:

    Enter an MPEC number in one of the following forms:

    • 1997-B01 (the full form)
    • J97B01 (the packed version of the full form)
    • B01 (the abbreviated form)